Back to catalog

LEMUR-2 EMARCHIA

AliveScienceSSO
NORAD 68492·PAYLOAD·🇩🇪 Germany

Launched Mar 30, 2026 from Vandenberg Space Force Base

Loading…

Next Passes (next 24 hours)

TLE

FreshSource: Space-Track

Epoch: Sep 14, 2026, 14:21 UTC

1 68492U 26067CE  26257.59852883  .00003604  00000-0  35688-3 0  9996
2 68492  97.7651 214.4271 0004872 105.4110 254.7647 14.92458399 25051

Track LEMUR-2 EMARCHIA in real time with AllMySat

Download on the App Store